Location: Asheville, NC
(35.6000°N, 82.5500°W)
Time: 19:29:53
(UTC-05:00)

ISS - Pass Details

Date: 07 December 2020
Orbit: 418 x 419 km, 51.6° (Epoch: 17 January)

Event Time Altitude Azimuth Distance (km) Brightness Sun altitude
Rises 17:38:12 0° 323° (NW) 2,361 0.2 -4.7°
Reaches altitude 10° 17:40:45 10° 343° (NNW) 1,495 -1.0 -5.2°
Maximum altitude 17:43:11 18° 30° (NNE) 1,092 -2.1 -5.6°
Drops below altitude 10° 17:45:35 10° 76° (ENE) 1,490 -1.6 -6.1°
Enters shadow 17:46:22 - 84° (E) 1,733 -1.2 -6.2°
